STARLINK-5681 (55469 NORAD) Tracking and Keplerian Element Data

This shows tracking and keplerian element data for the satellite.

Feedback or suggestion? Click here.




ElementValue
Catalog55469
NameSTARLINK-5681
Epoch Orbit831
Epoch Day85.25001157
Epoch Year2023
RAAN76.7333
Inclination43.0007
Eccentricity0.0001572
Argument of Perigee270.0892
Mean Anonmoly152.5469
Mean Motion15.48916779
Decay Rate-0.00035308
L11 55469U 23015W 23085.25001157 -.00035308 00000+0 -63514-3 0 9991
L22 55469 43.0007 76.7333 0001572 270.0892 152.5469 15.48916779 8318



Live tracking and technical data element details for STARLINK-5681 (NORAD 55469). STARLINK-5681 can be tracked NOW for your location showing map with azimuth and elevation plus other details from your city location.







IsCatalogInMostPopularTable: catalog: 55469, numindb: -1

Insert: records affected: 1


GetName: 55469 STARLINK-5681

Hit Count: inserted at: Tue, 28 Mar 2023 01:38:00 GMT